Content
SEND FEEDBACK

Daily
Averages
Monthly
Summary
Argentina

MENDOZA, ARGENTINA


Home > South America > Argentina
Elevation: 703 meters     Latitude: 32 50S     Longitude: 068 47W

WEATHER
 
SELECT A DAY
Number of Records: 181,632;   Date Range: 6/30/96 - 12/18/14
 
SHARE

PRINT THIS DATA

[ ← Previous Day ]
WEATHER ALMANAC - 31 JANUARY, 2013
[ Next Day → ]
[ °F ]   °C
Weather ElementAverageHighLow
Temperature25.6 °C33 °C (5:00 pm)19 °C (8:00 am)
Dewpoint16.8 °C19 °C (4:00 am)13.9 °C (3:00 pm)
Humidity60.2 %88 % (4:00 am)23 % (6:00 pm)
Barometer1008.1 hPa1013.2 hPa (4:00 am)999.3 hPa (6:00 pm)
Wind Speed8 km/h16.7 km/h (7:00 pm)
Weather ElementAverage
Visibility10.9 km
Wind DirectionESE (118.3 °)

Weather ElementTotal
Precipitation---
Cooling Degree Days7.7 (Base 18.3)
Growing Degree Days16 (Base 10)
Averaged from 31 records on 31 January, 2013
WEATHER CONDITIONS BREAKOUT
WIND DIRECTION BREAKOUT
WEATHER BY HOUR - 31 JANUARY, 2013
[ °F ]   °C
Local TimeTemperatureDewpointHumidityBarometerVisibilityWind DirectionWind SpeedGust SpeedPrecipitationEventsConditions
12:00 AM23 °C18 °C73 %1011.2 hPa10 kmSW (230°)11.1 km/hThunderstormThunderstorm
1:00 AM23 °C18 °C73 %1010.2 hPa10 kmSE (140°)7.4 km/hThunderstormThunderstorm
2:00 AM21 °C18 °C83 %1011.2 hPa10 kmSE (140°)9.3 km/hThunderstormThunderstorm
3:00 AM22 °C18 °C78 %1012.2 hPa10 kmCalmThunderstormThunderstorm
3:20 AM22 °C18 °C78 %1012.2 hPa10 kmWNW (300°)3.7 km/hRain-ThunderstormThunderstorms and Rain
4:00 AM21 °C19 °C88 %1013.2 hPa10 kmNorth (360°)3.7 km/hRain-ThunderstormThunderstorms and Rain
5:00 AM21 °C19 °C88 %1013.2 hPa10 kmCalmThunderstormThunderstorm
6:00 AM20 °C18 °C88 %1012.2 hPa10 kmCalmThunderstormThunderstorm
6:00 AM20.6 °C18.3 °C84 %1008.1 hPa14.5 kmCalmOvercast
7:00 AM20 °C18 °C88 %1012.2 hPa10 kmCalmThunderstormThunderstorm
8:00 AM19 °C17 °C88 %1012.2 hPa10 kmNE (50°)5.6 km/hPartly Cloudy
9:00 AM21.1 °C16.7 °C70 %1008.5 hPa14.5 kmNorth5.6 km/hPartly Cloudy
9:00 AM21 °C17 °C78 %1012.2 hPa10 kmNorth (360°)5.6 km/hPartly Cloudy
10:00 AM22 °C18 °C78 %1012.2 hPa10 kmNorth (360°)13 km/hScattered Clouds
11:00 AM24 °C17 °C65 %1011.2 hPaNorth (360°)11.1 km/hClear
12:00 PM26 °C17 °C57 %1011.2 hPaNE (50°)11.1 km/hClear
12:00 PM25.6 °C16.7 °C48 %1006.4 hPa14.5 kmNE (50°)11.1 km/hScattered Clouds
1:00 PM27 °C16 °C51 %1009.1 hPa10 kmNE (50°)11.1 km/hPartly Cloudy
2:00 PM30 °C15 °C40 %1008.1 hPa10 kmNE (50°)13 km/hPartly Cloudy
3:00 PM30 °C13.9 °C27 %1002 hPa14.5 kmNE (50°)13 km/hMostly Cloudy
3:00 PM30 °C14 °C37 %1007.1 hPa10 kmNE (50°)13 km/hPartly Cloudy
4:00 PM31 °C15 °C38 %1005.1 hPa10 kmNE (50°)11.1 km/hPartly Cloudy
5:00 PM33 °C16 °C36 %1004.1 hPa10 kmNE (50°)9.3 km/hScattered Clouds
6:00 PM31 °C15 °C38 %1004.1 hPa10 kmNE (50°)13 km/hPartly Cloudy
6:00 PM32.8 °C14.4 °C23 %999.3 hPa14.5 kmNE (50°)13 km/hMostly Cloudy
7:00 PM32 °C16 °C38 %1004.1 hPa10 kmNE (50°)16.7 km/hPartly Cloudy
8:00 PM31 °C16 °C40 %1004.1 hPa10 kmNE (50°)9.3 km/hPartly Cloudy
9:00 PM28.9 °C17.2 °C40 %1000.7 hPa14.5 kmEast (90°)5.6 km/hMostly Cloudy
9:00 PM29 °C17 °C48 %1005.1 hPa10 kmEast (90°)5.6 km/hMostly Cloudy
10:00 PM28 °C16 °C48 %1006.1 hPaNorth (360°)7.4 km/hClear
11:00 PM26 °C17 °C57 %1007.1 hPaESE (110°)7.4 km/hClear
Hourly data recorded from SAME, located 0 kilometers away from Mendoza, Argentina







STORIES FROM OUR PARTNERS